Weather History for Honolulu, HI

Change the Weather History Date:

Wednesday, July 17, 2013

  Actual Average Record
Temperature  
Mean Temperature 82 °F 81 °F  
Max Temperature 88 °F 88 °F 91 °F (1995)
Min Temperature 75 °F 75 °F 67 °F (1981)
Degree Days  
Heating Degree Days 0 0  
Month to date heating degree days 0 0  
Since 1 June heating degree days 0 0  
Since 1 July heating degree days 0 0  
Cooling Degree Days 17 16  
Month to date cooling degree days 256 272  
Year to date cooling degree days 2125 2230  
Since 1 June cooling degree days 665 728  
Growing Degree Days 31 (Base 50)    
Moisture  
Dew Point 64 °F    
Average Humidity 56    
Maximum Humidity 69    
Minimum Humidity 43    
Precipitation  
Precipitation 0.00 in 0.02 in 0.28 in (1999)
Month to date precipitation 0.03 0.24  
Year to date precipitation 8.66 8.07  
Snow  
Snow 0.00 in - - ()
Month to date snowfall 0.0  
Since 1 June snowfall 0.0  
Since 1 July snowfall 0.0  
Snow Depth 0.00 in    
Sea Level Pressure  
Sea Level Pressure 29.98 in    
Wind  
Wind Speed 13 mph (ENE)    
Max Wind Speed 22 mph    
Max Gust Speed 30 mph    
Visibility 10 miles    
Events Rain    
T = Trace of Precipitation, MM = Missing Value Source: NWS Daily Summary

Daily Weather History Graph

Daily Weather History Graph

Search for Another Location

Airport:

Trip Planner

Search our weather history database for the weather conditions in past years. The results will help you decide how hot, cold, wet, or windy it might be!

Date:

Astronomy

Jul. 17, 2013 Rise Set
Actual Time 5:59 AM HST 7:16 PM HST
Civil Twilight 5:35 AM HST 7:40 PM HST
Nautical Twilight 5:06 AM HST 8:09 PM HST
Astronomical Twilight 4:36 AM HST 8:39 PM HST
Moon 2:25 PM HST (7/17) 1:02 AM HST (7/17)
Length of Visible Light 14h 05m
Length of Day
13h 16m
Waxing Gibbous, 69% of the Moon is Illuminated
Jul 17
Waxing Gibbous
Jul 22
Full
Jul 29
Last Quarter
Aug 6
New
Aug 14
First Quarter

Hourly Weather History & Observations

Time (HST) Temp. Heat Index Dew Point Humidity Pressure Visibility Wind Dir Wind Speed Gust Speed Precip Events Conditions
12:53 AM 77.0 °F - 66.0 °F 69% 29.98 in 10.0 mi ENE 9.2 mph - N/A   Partly Cloudy
1:53 AM 75.9 °F - 64.9 °F 69% 29.97 in 10.0 mi ENE 11.5 mph - N/A   Scattered Clouds
2:53 AM 75.9 °F - 63.0 °F 64% 29.96 in 10.0 mi ENE 8.1 mph - N/A   Partly Cloudy
3:53 AM 77.0 °F - 64.0 °F 64% 29.95 in 10.0 mi ENE 9.2 mph - N/A   Partly Cloudy
4:53 AM 75.9 °F - 64.0 °F 67% 29.95 in 10.0 mi ENE 8.1 mph - N/A   Partly Cloudy
5:53 AM 75.9 °F - 64.0 °F 67% 29.96 in 10.0 mi ENE 9.2 mph - N/A   Partly Cloudy
6:53 AM 77.0 °F - 63.0 °F 62% 29.99 in 10.0 mi ENE 11.5 mph - N/A   Partly Cloudy
7:53 AM 80.1 °F 81.5 °F 63.0 °F 56% 29.99 in 10.0 mi East 16.1 mph 21.9 mph N/A   Scattered Clouds
8:53 AM 82.0 °F 83.0 °F 62.1 °F 51% 30.00 in 10.0 mi ENE 13.8 mph - N/A   Scattered Clouds
9:53 AM 84.0 °F 84.5 °F 62.1 °F 47% 30.00 in 10.0 mi NE 15.0 mph 23.0 mph N/A   Scattered Clouds
10:53 AM 84.9 °F 85.9 °F 63.0 °F 48% 29.99 in 10.0 mi NE 17.3 mph 25.3 mph N/A   Scattered Clouds
11:53 AM 86.0 °F 86.8 °F 63.0 °F 46% 29.99 in 10.0 mi ENE 15.0 mph 23.0 mph N/A   Scattered Clouds
12:53 PM 87.1 °F 87.5 °F 62.1 °F 43% 29.97 in 10.0 mi ENE 15.0 mph 27.6 mph N/A   Scattered Clouds
1:53 PM 86.0 °F 86.8 °F 63.0 °F 46% 29.97 in 10.0 mi ENE 15.0 mph 23.0 mph N/A   Scattered Clouds
2:53 PM 84.9 °F 85.9 °F 63.0 °F 48% 29.96 in 10.0 mi ENE 18.4 mph 25.3 mph N/A   Scattered Clouds
3:53 PM 84.9 °F 85.9 °F 63.0 °F 48% 29.96 in 10.0 mi ENE 19.6 mph 25.3 mph N/A   Scattered Clouds
4:53 PM 84.0 °F 84.5 °F 62.1 °F 47% 29.95 in 10.0 mi ENE 17.3 mph - N/A   Scattered Clouds
5:53 PM 82.0 °F 83.4 °F 64.0 °F 54% 29.95 in 10.0 mi ENE 15.0 mph 24.2 mph N/A   Scattered Clouds
6:53 PM 80.1 °F 81.7 °F 64.0 °F 58% 29.97 in 10.0 mi ENE 12.7 mph 23.0 mph N/A   Scattered Clouds
7:53 PM 79.0 °F - 64.0 °F 60% 29.99 in 10.0 mi ENE 16.1 mph - N/A   Scattered Clouds
8:53 PM 78.1 °F - 66.0 °F 66% 30.00 in 10.0 mi ENE 12.7 mph - 0.00 in Rain Light Rain
9:53 PM 78.1 °F - 64.9 °F 64% 30.01 in 10.0 mi ENE 10.4 mph - 0.00 in   Mostly Cloudy
10:53 PM 77.0 °F - 66.0 °F 69% 30.02 in 10.0 mi East 10.4 mph - N/A   Mostly Cloudy
11:53 PM 77.0 °F - 66.0 °F 69% 30.02 in 10.0 mi ENE 8.1 mph - 0.00 in   Overcast